When you browse on this site, cookies collect data to enhance your experience and personalize the content and advertising you see.
Visit our Privacy Policy to learn more. By continuing to use the site, you agree to this use of cookies and data.
  • In Hungary
  • List of Countries
  • For 7 days
  • Water Temperature
  • Satellite Maps
  • Weather Map
  • News
  • Weather Widgets
  • user-avatar
    Login

    Hourly Weather Strojnow

    Today, 26 May, Sunday

    Time Temperature Precipitation Wind Pressure Humidity
    00:00 +12°C° 0 mm 1 mps 734 mmHg 89%
    01:00 +11°C° 0 mm 0 mps 734 mmHg 90%
    02:00 +12°C° 0 mm 1 mps 734 mmHg 90%
    03:00 +11°C° 0 mm 1 mps 734 mmHg 91%
    04:00 +11°C° 0 mm 1 mps 734 mmHg 92%
    05:00 +13°C° 0 mm 1 mps 734 mmHg 87%
    06:00 +15°C° 0 mm 2 mps 734 mmHg 83%
    07:00 +16°C° 0 mm 2 mps 734 mmHg 79%
    08:00 +17°C° 0.4 mm 3 mps 734 mmHg 76%
    09:00 +19°C° 0.4 mm 3 mps 734 mmHg 72%
    10:00 +20°C° 0.4 mm 4 mps 734 mmHg 69%
    11:00 +20°C° 0.4 mm 4 mps 734 mmHg 67%
    12:00 +21°C° 0.4 mm 4 mps 734 mmHg 64%
    13:00 +21°C° 0.4 mm 4 mps 734 mmHg 61%
    14:00 +22°C° 0 mm 4 mps 733 mmHg 60%
    15:00 +22°C° 0 mm 4 mps 733 mmHg 58%
    16:00 +22°C° 0 mm 3 mps 733 mmHg 57%
    17:00 +20°C° 0 mm 2 mps 733 mmHg 63%
    18:00 +19°C° 0 mm 2 mps 733 mmHg 69%
    19:00 +18°C° 0 mm 1 mps 733 mmHg 75%
    20:00 +16°C° 0 mm 1 mps 733 mmHg 78%
    21:00 +15°C° 0 mm 1 mps 733 mmHg 81%
    22:00 +14°C° 0 mm 1 mps 733 mmHg 84%
    23:00 +14°C° 0 mm 1 mps 733 mmHg 87%

    Tomorrow, 27 May, Monday

    Time Temperature Precipitation Wind Pressure Humidity
    00:00 +14°C° 0 mm 1 mps 733 mmHg 89%
    01:00 +13°C° 0 mm 2 mps 733 mmHg 92%
    02:00 +13°C° 0 mm 2 mps 733 mmHg 93%
    03:00 +13°C° 0 mm 2 mps 733 mmHg 94%
    04:00 +13°C° 0 mm 2 mps 732 mmHg 94%
    05:00 +15°C° 0 mm 2 mps 732 mmHg 89%
    06:00 +17°C° 0 mm 3 mps 732 mmHg 83%
    07:00 +18°C° 0 mm 3 mps 732 mmHg 78%
    08:00 +20°C° 0.3 mm 3 mps 732 mmHg 74%
    09:00 +21°C° 0.3 mm 4 mps 732 mmHg 71%
    10:00 +22°C° 0.3 mm 5 mps 732 mmHg 68%
    11:00 +23°C° 0.4 mm 4 mps 732 mmHg 65%
    12:00 +23°C° 0.4 mm 4 mps 732 mmHg 63%
    13:00 +25°C° 0.4 mm 4 mps 732 mmHg 61%
    14:00 +25°C° 0.1 mm 4 mps 732 mmHg 60%
    15:00 +25°C° 0.1 mm 3 mps 732 mmHg 60%
    16:00 +25°C° 0.1 mm 2 mps 731 mmHg 60%
    17:00 +23°C° 0.2 mm 2 mps 731 mmHg 66%
    18:00 +21°C° 0.2 mm 2 mps 731 mmHg 73%
    19:00 +19°C° 0.2 mm 2 mps 731 mmHg 79%
    20:00 +20°C° 0 mm 1 mps 731 mmHg 82%
    21:00 +19°C° 0 mm 1 mps 731 mmHg 84%
    22:00 +18°C° 0 mm 1 mps 731 mmHg 86%
    23:00 +18°C° 0.1 mm 1 mps 730 mmHg 87%

    Day after tomorrow, 28 May, Tuesday

    Time Temperature Precipitation Wind Pressure Humidity
    00:00 +18°C° 0.1 mm 1 mps 730 mmHg 89%
    01:00 +16°C° 0.1 mm 0 mps 730 mmHg 90%
    02:00 +16°C° 0.2 mm 1 mps 729 mmHg 92%
    03:00 +16°C° 0.2 mm 2 mps 729 mmHg 94%
    04:00 +16°C° 0.2 mm 2 mps 728 mmHg 96%
    05:00 +17°C° 0 mm 3 mps 728 mmHg 92%
    06:00 +18°C° 0 mm 4 mps 728 mmHg 89%
    07:00 +19°C° 0 mm 5 mps 728 mmHg 86%
    08:00 +21°C° 0 mm 5 mps 728 mmHg 77%
    09:00 +22°C° 0 mm 5 mps 728 mmHg 69%
    10:00 +25°C° 0 mm 5 mps 728 mmHg 61%
    11:00 +25°C° 0.2 mm 5 mps 727 mmHg 62%
    12:00 +23°C° 0.2 mm 4 mps 727 mmHg 62%
    13:00 +23°C° 0.2 mm 4 mps 727 mmHg 63%
    14:00 +23°C° 1.2 mm 4 mps 726 mmHg 68%
    15:00 +22°C° 1.2 mm 4 mps 726 mmHg 74%
    16:00 +21°C° 1.2 mm 4 mps 726 mmHg 79%
    17:00 +20°C° 0.3 mm 4 mps 726 mmHg 81%
    18:00 +20°C° 0.3 mm 3 mps 726 mmHg 83%
    19:00 +19°C° 0.3 mm 3 mps 725 mmHg 86%
    20:00 +18°C° 0.1 mm 3 mps 726 mmHg 88%
    21:00 +17°C° 0.1 mm 4 mps 726 mmHg 90%
    22:00 +15°C° 0.1 mm 4 mps 726 mmHg 92%
    23:00 +14°C° 0 mm 4 mps 726 mmHg 93%

    29 May, Wednesday

    Time Temperature Precipitation Wind Pressure Humidity
    00:00 +13°C° 0 mm 4 mps 727 mmHg 93%
    01:00 +13°C° 0 mm 4 mps 727 mmHg 94%
    02:00 +12°C° 0 mm 4 mps 727 mmHg 93%
    03:00 +12°C° 0 mm 4 mps 728 mmHg 92%
    04:00 +11°C° 0 mm 3 mps 728 mmHg 92%
    05:00 +11°C° 0 mm 3 mps 728 mmHg 90%
    06:00 +12°C° 0 mm 3 mps 729 mmHg 89%
    07:00 +12°C° 0 mm 3 mps 729 mmHg 87%
    08:00 +13°C° 0 mm 3 mps 729 mmHg 83%
    09:00 +13°C° 0 mm 3 mps 730 mmHg 80%
    10:00 +14°C° 0 mm 3 mps 730 mmHg 76%
    11:00 +14°C° 0.3 mm 3 mps 730 mmHg 77%
    12:00 +14°C° 0.3 mm 3 mps 730 mmHg 78%
    13:00 +16°C° 0.3 mm 2 mps 731 mmHg 78%
    14:00 +15°C° 1.1 mm 2 mps 731 mmHg 83%
    15:00 +14°C° 1.1 mm 2 mps 731 mmHg 88%
    16:00 +14°C° 1.1 mm 2 mps 731 mmHg 92%
    17:00 +12°C° 1.1 mm 3 mps 731 mmHg 93%
    18:00 +12°C° 1.1 mm 3 mps 731 mmHg 94%
    19:00 +12°C° 1.1 mm 4 mps 732 mmHg 94%
    20:00 +12°C° 0.3 mm 4 mps 732 mmHg 94%
    21:00 +11°C° 0.3 mm 4 mps 733 mmHg 95%
    22:00 +11°C° 0.3 mm 4 mps 733 mmHg 95%
    23:00 +11°C° 0.2 mm 4 mps 733 mmHg 95%

    30 May, Thursday

    Time Temperature Precipitation Wind Pressure Humidity
    00:00 +11°C° 0.2 mm 3 mps 734 mmHg 95%
    01:00 +10°C° 0.2 mm 3 mps 734 mmHg 95%
    02:00 +10°C° 0 mm 3 mps 734 mmHg 96%
    03:00 +10°C° 0 mm 3 mps 735 mmHg 97%
    04:00 +10°C° 0 mm 2 mps 735 mmHg 97%
    05:00 +10°C° 0.1 mm 3 mps 736 mmHg 95%
    06:00 +11°C° 0.1 mm 4 mps 736 mmHg 94%
    07:00 +10°C° 0.1 mm 5 mps 737 mmHg 92%
    08:00 +10°C° 0.1 mm 5 mps 737 mmHg 90%
    09:00 +10°C° 0.1 mm 5 mps 738 mmHg 88%
    10:00 +10°C° 0.1 mm 5 mps 738 mmHg 86%
    11:00 +13°C° 0 mm 5 mps 738 mmHg 76%
    12:00 +14°C° 0 mm 5 mps 739 mmHg 67%
    13:00 +17°C° 0 mm 4 mps 739 mmHg 57%
    14:00 +17°C° 0 mm 4 mps 739 mmHg 56%
    15:00 +17°C° 0 mm 4 mps 739 mmHg 55%
    16:00 +17°C° 0 mm 4 mps 739 mmHg 54%
    17:00 +16°C° 0 mm 3 mps 739 mmHg 59%
    18:00 +14°C° 0 mm 2 mps 739 mmHg 65%
    19:00 +13°C° 0 mm 2 mps 740 mmHg 71%
    20:00 +12°C° 0 mm 1 mps 740 mmHg 73%
    21:00 +10°C° 0 mm 1 mps 740 mmHg 75%
    22:00 +8°C° 0 mm 0 mps 740 mmHg 77%
    23:00 +9°C° 0 mm 1 mps 740 mmHg 77%

    31 May, Friday

    Time Temperature Precipitation Wind Pressure Humidity
    00:00 +9°C° 0 mm 1 mps 740 mmHg 77%
    01:00 +9°C° 0 mm 1 mps 740 mmHg 77%
    02:00 +8°C° 0 mm 1 mps 740 mmHg 79%
    03:00 +7°C° 0 mm 2 mps 740 mmHg 81%
    04:00 +7°C° 0 mm 2 mps 739 mmHg 84%
    05:00 +9°C° 0 mm 2 mps 739 mmHg 79%
    06:00 +11°C° 0 mm 3 mps 739 mmHg 75%
    07:00 +13°C° 0 mm 4 mps 739 mmHg 71%
    08:00 +15°C° 0 mm 4 mps 739 mmHg 67%
    09:00 +17°C° 0 mm 4 mps 739 mmHg 64%
    10:00 +19°C° 0 mm 4 mps 739 mmHg 61%
    11:00 +19°C° 0.5 mm 5 mps 739 mmHg 64%
    12:00 +20°C° 0.5 mm 5 mps 738 mmHg 68%
    13:00 +20°C° 0.5 mm 5 mps 738 mmHg 72%
    14:00 +19°C° 0.7 mm 5 mps 739 mmHg 76%
    15:00 +17°C° 0.7 mm 5 mps 739 mmHg 79%
    16:00 +16°C° 0.7 mm 5 mps 739 mmHg 83%
    17:00 +15°C° 0.1 mm 5 mps 740 mmHg 85%
    18:00 +14°C° 0.1 mm 5 mps 740 mmHg 88%
    19:00 +12°C° 0.1 mm 5 mps 741 mmHg 90%
    20:00 +11°C° 0 mm 4 mps 741 mmHg 91%
    21:00 +9°C° 0 mm 3 mps 742 mmHg 92%
    22:00 +7°C° 0 mm 2 mps 742 mmHg 94%
    23:00 +7°C° 0 mm 2 mps 743 mmHg 93%
    Show more